Theta_e
303 307 320 322 323 323 324 325 325 325 326 328 327 328 328 327 328 329 329 328 328 330 330 330 331 330 332 334 336 336 335 333 335 337 339 340 339 342 346 348 348 348 348
304 308 321 321 322 323 323 323 323 324 327 326 325 326 326 324 326 326 326 325 325 325 327 328 329 330 329 330 332 334 335 334 332 334 335 334 334 337 342 344 347 346 349
304 307 311 320 321 321 321 321 321 323 323 323 322 323 323 321 324 322 321 323 322 324 324 325 327 328 329 328 328 331 333 334 334 332 332 327 327 332 339 342 344 347 347
304 307 311 319 319 318 318 320 320 321 321 320 321 320 320 321 321 321 322 320 322 322 322 323 324 324 328 329 328 327 329 331 333 332 329 324 323 328 335 338 343 344 346
303 306 310 316 316 316 317 317 318 319 319 319 319 318 319 320 320 318 319 319 320 320 322 322 323 323 324 326 327 328 329 328 330 326 325 324 323 324 331 336 339 342 343
301 303 309 314 314 315 316 318 317 316 316 317 317 318 319 318 318 317 317 317 318 319 320 321 321 321 322 323 325 326 326 327 326 317 316 324 323 325 328 332 336 339 342
300 300 302 311 312 312 314 316 315 316 316 316 316 316 316 315 314 315 315 315 315 317 318 320 319 320 320 320 321 323 325 323 318 315 313 316 321 326 328 330 334 336 339
299 299 299 305 309 309 311 313 313 314 314 314 314 313 314 312 312 312 314 314 315 315 315 316 317 317 317 319 319 321 321 319 315 310 309 308 316 324 328 329 331 333 336
299 298 298 299 302 304 307 311 311 312 312 311 311 311 310 308 309 310 311 311 313 313 313 314 315 315 316 315 317 316 315 315 310 306 307 307 312 321 327 328 330 332 334
298 298 297 298 298 299 300 308 308 309 308 307 307 307 305 303 304 305 306 308 310 310 310 311 311 311 312 313 311 311 311 311 304 304 305 306 312 318 324 326 327 330 332
297 297 297 297 298 298 300 300 301 304 304 303 302 303 299 297 298 299 302 306 307 307 307 308 308 308 308 306 307 308 308 303 303 303 303 307 312 317 322 324 325 327 329
295 296 297 297 296 297 299 298 298 298 299 298 298 298 297 296 297 298 299 302 303 304 304 305 305 305 302 300 300 303 301 302 302 302 303 307 312 316 319 321 323 324 326
294 296 296 297 296 297 297 298 298 297 298 297 297 297 297 296 296 296 296 297 298 300 298 299 299 299 299 299 299 300 300 301 301 301 303 307 310 314 317 318 320 321 324
294 295 296 297 296 296 297 297 297 297 297 296 297 297 296 296 296 295 295 296 297 297 297 298 298 298 298 298 298 298 299 301 301 301 302 306 309 312 315 317 318 321 323
293 294 295 296 296 296 296 296 297 297 297 296 297 297 297 296 295 295 295 296 296 297 297 297 297 297 297 298 298 298 299 300 300 301 301 305 307 309 312 316 317 319 322
293 294 295 296 297 296 296 296 296 297 297 297 297 297 296 296 295 295 295 295 296 297 297 297 297 297 297 297 296 297 299 300 300 301 301 302 305 307 310 314 316 317 320
293 293 294 296 297 296 296 296 297 297 296 296 296 296 296 296 295 295 295 296 297 297 297 297 297 297 297 296 296 297 298 299 300 300 301 301 302 304 306 309 313 316 317
293 293 294 295 295 296 296 296 296 296 296 295 295 296 295 295 296 295 295 295 295 295 296 296 297 295 296 296 295 297 298 299 300 300 301 301 301 302 303 306 310 314 316
292 293 294 295 295 295 296 296 296 295 295 295 295 295 295 295 295 295 294 295 297 296 296 296 296 296 295 295 295 297 298 297 299 300 300 301 302 302 302 304 308 310 313
292 292 293 294 294 295 296 296 296 295 295 295 295 295 295 295 296 296 294 296 297 297 296 297 295 297 296 295 295 295 298 299 299 300 300 300 301 301 302 302 303 304 309
292 293 293 293 294 294 294 293 293 292 293 294 295 294 294 294 295 295 297 297 299 297 296 296 295 294 294 297 293 293 294 298 298 299 300 299 301 301 301 302 303 304 305
290 291 292 293 293 294 294 294 293 292 293 293 294 294 294 294 295 295 296 296 297 297 297 297 296 294 294 297 292 292 289 293 298 297 298 299 300 301 301 301 303 303 307
290 291 292 292 293 293 293 294 293 293 293 292 292 293 293 294 294 295 296 296 297 296 296 298 297 296 293 295 296 293 288 288 290 297 298 297 299 299 300 301 302 305 309
291 291 291 292 293 294 293 292 290 290 289 291 291 292 293 294 294 295 295 296 296 296 295 296 298 298 296 293 296 296 295 293 289 288 295 295 296 298 299 300 303 306 308
291 291 291 292 293 293 293 292 292 291 291 292 292 292 292 293 294 294 294 295 295 295 295 295 296 296 297 295 295 295 294 293 293 290 287 291 294 298 300 301 303 305 306
291 291 292 292 292 293 292 292 291 291 291 291 291 291 291 292 293 293 294 295 295 295 294 295 295 295 296 295 296 294 294 291 290 290 289 290 289 295 299 300 301 304 307
Wind_Speed
6 9 13 13 14 15 17 18 18 17 17 15 15 18 18 17 17 18 19 20 19 20 18 18 21 18 19 18 18 18 16 14 16 17 18 19 18 16 14 11 8 6 5
4 9 15 14 15 16 17 17 17 16 16 15 15 16 18 17 18 19 19 18 18 18 20 21 18 19 19 18 19 18 17 18 14 15 15 15 15 17 15 14 12 8 9
9 10 10 14 15 16 17 17 15 16 14 17 14 15 15 15 17 17 17 18 18 17 17 19 19 19 17 18 18 18 19 18 19 15 15 8 9 15 15 15 15 12 10
9 9 10 15 15 15 15 14 15 15 16 15 14 15 16 17 18 18 18 19 18 17 18 17 19 19 20 19 17 18 17 18 19 18 12 8 8 14 14 16 16 15 13
10 11 11 15 15 16 15 14 12 14 14 13 14 14 16 15 15 17 17 17 17 17 18 17 18 19 21 20 20 19 18 18 19 17 13 11 9 10 15 15 14 15 14
9 11 13 14 15 15 14 15 14 12 11 13 13 14 15 17 17 18 18 17 16 18 18 18 17 18 19 19 19 18 18 18 16 12 13 13 12 13 16 16 16 15 14
7 9 11 16 15 15 15 14 14 14 14 14 14 15 16 18 18 17 16 16 15 16 19 18 17 18 18 19 21 21 18 20 13 11 11 12 11 18 18 17 17 16 16
8 8 9 13 15 15 15 14 13 13 14 14 16 17 17 18 17 17 17 16 18 19 19 19 19 18 19 19 18 21 21 19 15 12 13 11 16 20 20 18 18 18 17
7 7 8 8 11 13 15 14 13 14 14 15 16 16 16 16 17 17 17 17 19 20 19 19 19 18 20 20 20 20 21 22 14 10 13 9 15 20 22 20 19 19 18
7 8 8 8 9 8 8 14 15 14 15 15 15 16 15 14 16 15 17 18 19 20 19 19 19 19 18 20 22 21 20 19 12 13 11 9 18 20 22 22 22 21 20
7 7 7 9 8 8 7 9 10 12 14 13 11 14 11 8 10 12 15 18 18 20 19 18 19 19 19 18 18 20 20 7 11 9 8 16 20 20 22 21 21 22 23
6 7 6 7 7 7 6 7 7 8 7 7 8 9 8 9 10 12 12 16 17 17 17 18 18 18 14 9 8 13 7 11 10 10 8 19 22 22 21 22 20 22 24
4 5 6 7 6 6 6 4 4 4 5 5 8 8 8 7 7 7 7 7 8 12 7 10 10 8 12 10 9 10 11 11 8 9 12 19 21 23 22 21 22 24 25
4 5 5 6 6 6 4 4 4 5 5 5 6 8 7 6 8 9 7 8 7 7 10 9 7 10 11 12 12 12 13 11 9 8 12 20 20 22 22 22 22 23 23
5 5 6 5 6 5 6 4 5 5 5 6 7 8 8 8 9 9 9 8 8 8 8 9 9 9 10 11 12 13 13 13 13 10 9 20 20 21 22 23 22 22 23
4 5 6 5 5 5 5 7 5 5 6 7 7 8 10 9 8 9 9 9 9 9 9 9 9 9 9 11 12 12 13 13 13 14 11 12 21 20 21 23 22 21 23
4 5 6 6 6 6 7 7 6 6 6 6 7 9 10 9 10 10 8 9 9 9 11 9 9 9 9 11 12 12 11 13 13 14 12 11 13 18 20 22 23 22 22
3 5 5 5 6 7 7 6 5 5 5 5 5 6 10 10 10 9 8 8 9 8 8 8 9 9 10 10 11 10 10 12 15 15 13 11 11 11 14 20 23 22 22
4 5 5 6 6 7 7 6 5 7 4 5 6 7 10 9 10 8 6 7 10 7 8 8 9 9 10 10 11 11 12 11 13 11 14 13 13 13 10 16 20 21 22
2 4 4 4 6 6 5 5 5 5 5 5 6 7 9 8 10 9 7 8 9 8 7 7 8 10 10 10 11 12 12 12 9 9 10 9 12 14 13 12 10 10 19
1 4 4 5 6 4 4 4 5 5 5 6 7 10 9 8 9 10 8 9 9 8 9 8 7 9 8 10 8 9 9 12 10 6 7 8 12 10 11 10 8 8 8
3 4 4 4 4 4 3 2 2 3 3 4 6 8 9 10 11 9 10 9 11 8 10 9 8 6 5 8 5 9 6 7 3 12 7 9 11 7 7 8 10 10 9
3 3 4 4 4 4 4 3 3 2 3 3 7 7 8 9 9 10 10 9 10 8 7 9 8 8 6 7 8 4 4 3 8 3 7 9 12 6 5 6 7 6 5
3 3 3 4 4 4 4 3 4 3 4 3 5 6 7 9 9 9 9 9 9 8 9 8 9 9 7 6 6 3 4 7 4 6 5 7 10 8 8 5 5 3 2
2 3 3 3 2 3 3 4 3 4 4 5 5 8 8 8 8 9 10 9 9 8 10 11 11 10 7 8 7 6 4 6 3 4 6 8 7 7 8 7 6 5 5
3 2 2 2 3 4 3 4 4 5 6 6 7 6 6 6 6 9 10 8 8 9 10 9 9 9 8 8 7 8 6 3 4 4 4 4 6 5 6 9 9 8 7
Wind_Direction
15 349 357 10 8 1 359 353 349 346 351 0 358 359 356 4 354 355 359 353 352 346 350 346 334 333 332 333 333 328 327 321 326 337 345 353 353 345 343 325 318 295 314
9 4 8 13 4 0 355 351 344 341 356 4 2 1 1 355 350 356 355 350 347 346 342 338 342 342 329 329 323 329 323 319 318 317 334 347 350 346 340 334 325 297 285
28 10 1 11 4 358 357 350 346 336 353 349 346 8 358 353 354 355 350 350 349 348 346 338 336 336 336 326 325 326 324 322 313 313 315 332 344 338 336 334 326 316 282
24 9 355 12 6 1 354 350 353 351 356 359 2 356 358 1 359 357 354 352 348 353 341 344 338 332 335 338 330 321 319 320 324 322 316 321 325 323 324 324 322 321 325
31 15 2 11 7 1 358 356 355 358 1 354 6 3 356 0 1 351 351 342 349 345 342 347 345 341 332 329 334 332 333 320 320 345 329 318 313 304 310 315 316 313 308
38 23 10 16 10 8 8 11 7 5 359 5 3 6 355 357 356 349 348 339 346 338 343 341 342 340 338 322 327 333 330 336 338 354 337 323 318 305 297 301 305 308 310
50 35 22 18 17 15 11 13 9 7 13 9 5 6 358 357 353 350 341 349 343 340 339 342 339 333 340 331 323 320 330 335 338 342 336 332 322 308 292 287 293 300 301
46 32 28 19 17 14 10 10 10 7 14 15 10 357 4 2 354 354 353 351 344 344 340 336 330 337 331 326 334 327 318 332 329 334 328 325 315 310 298 287 283 286 293
51 39 26 19 14 12 9 15 18 23 21 12 9 2 6 5 357 347 349 343 344 345 339 335 335 335 329 326 331 330 321 322 324 318 313 302 306 307 292 290 285 280 282
44 35 24 18 12 12 20 17 16 19 12 13 11 7 6 3 355 347 346 338 343 344 337 343 334 325 329 332 331 322 320 320 313 309 292 292 302 298 295 281 284 281 279
35 29 25 17 15 11 28 11 15 9 11 11 9 5 3 1 357 3 353 348 348 345 349 341 341 329 338 329 319 320 324 312 306 301 295 295 297 295 295 288 281 287 281
20 15 20 17 15 8 9 6 12 5 5 6 1 4 5 360 355 357 352 349 347 342 343 341 339 338 331 322 317 317 311 308 301 299 293 298 297 293 291 285 284 282 279
3 13 10 4 4 10 1 3 7 4 9 2 4 3 359 357 353 351 344 342 340 338 338 336 335 330 328 320 314 312 306 304 299 297 297 298 298 292 289 284 278 275 271
15 10 1 5 3 3 356 2 354 0 10 7 354 353 348 345 348 347 339 336 332 336 331 330 327 322 320 314 310 307 302 296 296 295 294 298 297 291 285 280 278 280 273
16 359 2 357 7 0 358 348 346 350 352 345 342 339 342 338 335 332 332 329 329 331 327 325 321 318 317 317 315 301 300 294 294 290 291 294 294 292 283 276 274 276 279
351 357 348 358 9 352 352 349 349 342 342 339 333 334 334 332 330 330 332 331 332 332 325 320 317 315 315 318 314 307 298 294 291 284 286 290 291 287 286 276 272 276 279
352 341 352 344 3 355 350 351 351 355 346 342 340 337 339 339 337 335 332 330 331 330 325 321 314 312 314 316 313 311 301 291 291 286 280 283 286 284 284 276 271 272 276
349 345 334 343 348 356 356 350 350 351 350 351 347 343 346 342 339 335 333 327 331 322 320 325 324 322 318 311 314 309 303 304 298 291 284 283 282 282 282 275 271 272 277
344 332 340 350 358 351 349 350 354 357 354 352 352 350 350 344 342 336 323 321 326 319 316 330 323 315 316 313 311 312 306 304 293 293 290 286 289 277 272 269 270 273 280
319 332 323 348 357 350 347 352 359 357 354 352 356 351 346 345 345 335 324 327 328 328 326 330 319 315 313 309 316 309 302 302 291 287 285 290 298 283 263 261 266 272 277
234 333 353 341 349 349 355 352 351 344 338 343 355 349 349 342 345 345 340 338 326 329 326 318 315 310 311 325 302 304 301 294 307 297 310 294 302 287 260 254 256 266 274
309 310 321 340 340 359 354 346 307 314 315 321 334 344 354 352 350 345 345 333 340 324 324 327 316 309 292 319 302 303 316 327 346 315 336 327 320 311 261 256 260 262 267
270 296 323 330 338 1 356 337 338 335 315 326 349 345 344 345 347 349 352 348 345 337 320 328 316 307 309 325 312 312 320 316 323 302 335 340 335 338 339 296 267 268 252
268 293 297 331 349 357 354 353 5 349 339 327 323 327 337 349 346 347 345 345 348 346 334 326 334 334 334 322 320 297 296 300 318 312 325 336 333 353 359 345 334 352 110
241 294 331 321 323 346 344 357 346 339 321 317 326 336 345 341 346 347 348 345 347 349 346 341 337 338 340 332 336 325 298 325 297 312 322 338 335 349 12 2 9 5 35
221 237 256 326 328 340 327 341 338 325 329 332 339 336 341 338 339 348 348 347 337 343 350 346 344 338 345 346 341 332 328 307 312 325 315 323 324 318 4 28 26 12 22